Temp
54 55 55 55 55 55 54 54 54 53 53 54 54 55 55 54 54 59 64 62 62 65 69 67 69 67 70 71 65 68 67 68 74 68 69 72 70 72 71 68 69 71 70 71 73 68 63 77 79 75 73 78 81 82
54 54 54 54 55 54 54 54 54 53 53 54 54 54 54 54 54 55 67 67 65 60 68 68 71 72 70 71 67 69 64 61 65 68 71 70 70 70 68 65 71 67 70 72 70 70 71 76 74 75 76 75 78 81
54 54 54 54 54 54 54 54 54 53 53 53 54 54 54 53 53 53 62 62 64 63 69 70 71 72 75 73 77 66 69 63 65 66 68 68 63 71 68 70 70 71 73 76 71 73 74 73 76 76 77 77 80 82
54 54 54 54 54 54 54 54 54 53 53 53 53 54 53 53 52 52 63 64 62 64 62 67 76 72 74 76 72 73 67 65 64 67 68 68 67 71 72 70 72 75 73 70 71 73 73 74 75 76 77 79 80 82
54 53 53 53 53 54 54 54 53 53 53 53 53 53 53 52 52 58 66 67 66 59 61 69 73 73 77 73 72 72 68 62 64 64 66 65 69 70 76 75 75 79 72 72 72 71 73 73 74 76 78 78 80 79
53 53 53 53 53 54 54 53 53 53 53 53 53 52 52 52 52 63 61 65 69 64 61 64 72 70 73 73 72 70 71 67 67 63 65 68 66 66 68 69 72 75 75 77 73 75 73 75 75 76 78 79 80 80
53 53 53 53 53 53 53 53 53 53 53 53 52 52 52 51 57 60 59 60 54 64 61 63 67 71 71 72 76 76 71 71 69 65 66 68 70 66 70 66 73 75 76 75 76 76 73 75 74 77 79 78 76 80
53 53 53 53 53 53 53 53 53 53 52 52 52 52 51 51 52 59 65 55 57 61 63 59 65 66 71 70 68 75 72 72 68 68 68 67 70 71 64 69 70 72 73 74 75 77 77 79 79 77 78 79 76 76
52 52 53 53 53 53 53 53 53 52 52 52 52 52 57 57 61 62 53 54 65 61 59 63 61 60 72 72 73 70 71 64 70 66 67 67 66 61 64 64 67 69 68 70 74 75 76 76 76 77 77 75 68 71
51 51 52 52 52 52 52 52 52 52 51 51 55 57 56 61 52 55 57 59 61 63 62 60 69 62 69 68 66 68 69 66 60 66 70 63 64 66 67 67 67 68 70 72 70 71 73 73 73 74 74 76 77 77
51 51 52 52 52 52 52 52 52 50 48 58 57 58 62 53 61 61 55 55 59 55 62 65 64 64 70 61 63 69 63 67 57 61 61 61 61 63 64 66 69 71 72 73 72 73 74 74 74 74 73 74 75 74
51 51 52 52 52 52 52 52 51 54 60 55 57 57 62 59 57 51 52 57 54 56 62 61 65 66 68 69 59 63 58 63 52 65 60 57 58 62 65 66 67 70 70 70 71 71 72 72 73 73 74 74 74 74
51 52 52 52 52 52 52 51 51 51 52 59 56 53 55 52 39 45 45 52 54 59 63 63 60 66 65 63 61 59 53 55 67 56 57 57 58 62 64 67 66 69 69 70 70 71 72 71 73 72 72 74 74 73
51 51 51 52 52 52 51 51 51 52 55 54 49 36 46 45 51 56 59 60 61 64 65 62 64 61 63 56 61 52 62 62 52 50 51 58 60 61 64 66 67 66 67 68 68 69 69 70 70 71 72 72 71 70
51 51 51 52 52 52 51 51 51 58 56 50 51 40 48 59 61 64 65 62 64 66 64 60 61 62 60 57 59 58 52 50 55 54 58 61 60 59 57 58 62 65 66 66 67 68 68 68 67 68 70 71 70 70
51 51 50 51 51 51 51 51 55 60 57 53 52 51 57 56 58 60 62 62 68 67 66 63 58 56 55 59 53 52 51 50 53 60 62 58 56 58 60 63 65 64 64 64 66 66 66 67 66 66 69 69 68 67
50 48 51 51 50 50 51 57 57 52 55 50 53 59 60 60 61 63 64 64 66 63 54 59 52 52 62 54 52 58 54 57 60 60 61 61 61 61 62 63 63 61 59 59 59 60 62 64 65 65 62 61 62 60
48 51 51 51 53 52 53 54 55 53 48 55 53 57 61 63 61 60 64 66 62 64 59 57 65 54 52 50 56 59 61 64 65 65 65 63 63 62 63 59 57 58 59 57 58 59 60 60 59 58 61 60 60 61
51 51 51 52 56 57 52 50 53 49 54 60 60 62 63 64 64 64 66 66 65 66 63 63 57 58 59 61 61 60 62 62 61 64 66 63 62 61 59 60 54 55 55 55 57 56 55 57 57 57 58 59 59 59
50 51 52 53 53 55 49 51 57 52 52 57 61 59 59 57 61 66 66 66 66 64 60 59 62 61 60 63 65 65 64 65 65 63 65 67 63 61 57 54 56 56 55 56 57 50 59 57 57 58 58 57 57 58
54 54 54 57 59 58 54 54 53 56 59 54 58 58 56 58 59 61 64 65 62 62 60 65 64 64 62 64 66 66 65 64 62 61 59 58 58 54 52 53 56 56 54 52 56 52 52 53 56 61 62 58 59 57
54 52 59 58 55 52 49 57 54 58 54 56 55 59 55 53 58 60 61 59 61 65 65 65 65 66 63 61 63 61 60 59 59 57 50 51 50 51 52 53 54 53 52 54 56 54 53 54 57 59 55 61 64 66
54 55 53 53 48 45 46 59 50 55 50 53 58 53 55 58 59 62 57 61 62 63 64 64 61 60 59 59 58 57 58 58 56 55 53 52 53 54 55 53 53 52 51 56 63 65 62 50 55 62 61 66 71 70
51 51 46 45 48 45 56 51 57 56 56 54 53 49 52 56 58 57 50 59 62 63 61 58 60 58 55 54 53 55 56 55 53 52 53 51 50 51 54 60 65 68 69 70 69 68 67 64 56 66 71 70 70 69
42 42 45 34 52 48 46 48 48 51 46 49 48 49 52 54 51 45 41 57 61 61 61 60 58 53 49 53 53 51 53 53 54 51 53 55 54 54 57 69 69 70 72 70 68 69 69 72 72 71 70 69 68 67
35 46 39 48 49 47 49 43 44 46 49 47 49 53 53 52 43 37 53 58 57 57 58 55 51 50 54 50 50 51 53 59 61 59 64 69 67 66 66 66 66 68 75 75 71 71 71 73 71 69 71 65 49 66
37 44 53 58 56 54 51 53 55 52 46 45 51 48 45 41 39 52 59 59 59 59 59 57 56 52 50 51 52 60 64 67 68 67 70 74 75 75 73 66 66 71 76 76 75 71 69 70 68 68 70 72 71 72
47 49 44 50 51 55 47 50 47 46 50 56 52 45 44 44 47 55 54 59 54 53 57 53 53 53 53 56 65 66 67 68 68 70 74 74 75 77 74 77 75 44 71 75 74 74 72 71 72 70 70 71 73 74
45 51 53 46 49 51 50 48 51 55 59 56 48 47 48 54 54 54 53 53 54 55 52 52 54 58 62 65 67 68 71 72 68 64 63 62 69 71 75 76 75 75 77 75 43 53 68 72 73 73 72 75 76 75
42 48 47 46 44 46 55 58 51 50 50 49 51 49 49 50 51 53 52 52 51 52 56 61 65 63 67 70 70 71 74 74 73 73 70 68 73 76 75 75 75 77 78 78 78 74 46 63 60 72 71 73 73 72
45 47 43 43 43 52 54 54 54 54 50 48 49 47 47 49 51 53 53 55 61 64 64 66 68 70 71 72 71 70 70 76 76 74 76 79 77 76 76 77 78 78 77 76 76 75 73 72 73 72 72 70 68 66
44 42 42 41 44 48 50 48 48 47 48 47 47 49 49 52 53 59 64 64 65 65 62 65 70 72 73 74 76 76 47 76 76 76 73 75 77 78 79 78 78 77 75 75 75 75 73 72 72 71 71 68 67 67
46 46 46 46 45 45 48 48 47 47 52 55 56 59 61 61 57 65 72 72 69 70 71 73 73 74 71 70 72 71 61 70 53 40 44 43 43 56 72 80 78 77 76 75 74 74 71 69 70 67 67 66 66 66
MSLP
1019.41 1020.15 1020.79 1021.31 1021.86 1022.24 1022.34 1022.79 1022.87 1022.69 1022.38 1022.41 1022.01 1021.65 1021.24 1020.85 1020.58 1019.68 1019.22 1019.67 1019.03 1016.97 1015.25 1015.16 1014.62 1013.88 1013.16 1012.64 1012.05 1011.97 1011.60 1010.48 1009.35 1008.33 1007.10 1005.73 1005.31 1005.28 1005.31 1005.73 1005.31 1004.67 1004.24 1004.02 1004.26 1004.33 1005.36 1006.51 1006.23 1006.25 1007.62 1007.40 1007.22 1007.55
1018.74 1019.53 1020.18 1020.82 1021.34 1021.78 1022.01 1022.40 1022.59 1022.39 1022.35 1022.36 1022.03 1021.75 1021.37 1021.05 1020.86 1020.43 1019.04 1019.73 1019.90 1018.64 1015.90 1015.89 1015.39 1015.11 1014.89 1014.31 1013.93 1013.05 1012.75 1012.20 1012.24 1010.49 1009.16 1008.09 1006.80 1006.64 1005.89 1005.63 1006.54 1006.13 1006.27 1005.38 1006.22 1006.23 1007.50 1007.73 1007.89 1008.62 1008.67 1008.39 1008.27 1008.30
1018.17 1018.99 1019.71 1020.36 1020.90 1021.46 1021.73 1022.05 1022.30 1022.13 1022.25 1022.29 1022.09 1021.92 1021.63 1021.36 1021.31 1021.16 1019.97 1019.87 1019.25 1017.80 1015.51 1014.97 1014.21 1014.81 1014.85 1014.72 1014.44 1013.83 1013.43 1013.96 1013.39 1013.37 1011.30 1009.68 1008.31 1007.71 1006.38 1006.10 1006.53 1007.11 1007.25 1006.33 1006.79 1007.37 1007.81 1008.42 1008.77 1009.15 1009.32 1009.01 1008.99 1009.01
1017.57 1018.40 1019.20 1019.89 1020.46 1021.13 1021.49 1021.85 1021.94 1021.90 1022.22 1022.32 1022.16 1022.02 1021.84 1021.59 1021.37 1021.17 1019.89 1019.98 1019.57 1018.16 1015.79 1014.37 1014.57 1014.34 1014.83 1014.69 1014.68 1014.64 1014.63 1014.81 1014.41 1013.54 1011.98 1010.49 1009.19 1009.06 1007.76 1007.63 1006.94 1007.25 1007.67 1007.53 1007.39 1008.04 1008.63 1009.03 1009.29 1009.54 1009.46 1009.42 1009.36 1009.61
1017.01 1017.78 1018.69 1019.48 1020.10 1020.77 1021.22 1021.62 1021.65 1021.82 1022.13 1022.27 1022.13 1021.96 1021.89 1021.74 1021.39 1020.66 1020.18 1019.94 1020.11 1019.46 1016.45 1014.26 1014.12 1014.45 1014.21 1014.46 1014.41 1014.57 1014.67 1014.73 1014.11 1013.27 1012.09 1011.09 1010.73 1010.06 1008.98 1008.15 1007.22 1007.68 1007.66 1007.61 1007.08 1008.83 1009.00 1009.26 1009.88 1010.01 1009.71 1009.59 1009.60 1009.77
1016.49 1017.24 1018.20 1019.03 1019.83 1020.51 1020.98 1021.34 1021.46 1021.78 1021.95 1022.11 1022.05 1021.89 1021.87 1021.79 1021.43 1019.91 1019.31 1019.91 1020.04 1019.83 1017.59 1014.27 1014.15 1014.08 1014.10 1014.12 1014.12 1014.26 1014.34 1014.41 1014.09 1013.43 1012.59 1012.12 1012.19 1011.63 1009.43 1008.39 1008.73 1008.75 1008.93 1008.90 1008.95 1009.51 1009.73 1010.00 1010.22 1010.32 1010.06 1010.14 1010.05 1010.26
1015.94 1016.75 1017.78 1018.71 1019.54 1020.23 1020.67 1021.03 1021.29 1021.59 1021.86 1021.91 1021.88 1021.83 1021.81 1021.81 1021.27 1020.18 1020.13 1020.33 1020.78 1020.00 1017.62 1014.83 1013.27 1013.79 1014.09 1013.83 1013.62 1013.56 1014.13 1013.93 1013.71 1013.37 1012.83 1012.24 1012.08 1011.94 1010.11 1009.09 1009.24 1009.49 1009.67 1009.80 1009.97 1009.96 1009.87 1009.92 1009.85 1010.23 1010.42 1010.71 1011.04 1011.29
1015.22 1016.40 1017.61 1018.45 1019.24 1019.89 1020.39 1020.70 1021.08 1021.44 1021.74 1021.73 1021.73 1021.77 1021.73 1021.64 1021.56 1020.51 1019.70 1020.54 1020.72 1019.39 1017.84 1015.27 1013.36 1013.38 1013.85 1012.72 1012.65 1013.58 1013.14 1013.38 1013.49 1013.08 1013.03 1012.27 1012.11 1011.70 1010.66 1010.44 1010.77 1010.79 1010.72 1010.50 1010.56 1010.53 1010.40 1010.24 1010.31 1010.75 1011.14 1011.32 1011.52 1011.86
1015.25 1016.49 1017.42 1018.18 1018.99 1019.57 1020.01 1020.37 1020.92 1021.28 1021.63 1021.65 1021.62 1021.55 1021.07 1021.01 1019.93 1019.81 1020.71 1020.64 1019.99 1019.58 1016.98 1015.37 1013.29 1012.47 1013.50 1012.88 1013.01 1013.25 1013.25 1012.55 1013.23 1012.51 1012.36 1012.48 1011.47 1011.43 1011.61 1011.92 1011.86 1011.85 1011.73 1011.45 1011.27 1011.11 1010.95 1010.81 1010.91 1011.13 1011.34 1011.57 1011.87 1012.47
1016.13 1016.95 1017.52 1018.18 1018.87 1019.37 1019.77 1020.25 1020.79 1021.18 1021.55 1021.56 1021.27 1020.62 1019.69 1019.71 1020.81 1020.81 1020.55 1019.28 1018.60 1017.85 1017.25 1015.23 1014.28 1013.16 1013.41 1012.62 1012.59 1012.82 1012.77 1012.09 1011.92 1012.00 1012.56 1012.20 1011.43 1012.23 1012.57 1012.88 1012.89 1012.63 1012.35 1012.02 1011.53 1011.28 1011.27 1011.21 1011.53 1011.80 1011.95 1012.02 1012.10 1012.19
1016.33 1017.04 1017.59 1018.24 1018.77 1019.23 1019.71 1020.17 1020.65 1021.37 1021.49 1020.91 1020.07 1019.48 1019.82 1020.49 1020.09 1019.07 1018.34 1017.74 1017.03 1016.39 1015.62 1014.81 1014.25 1013.12 1013.77 1013.20 1012.85 1013.18 1012.67 1012.07 1011.73 1011.70 1012.01 1011.53 1011.39 1012.52 1013.33 1013.45 1013.29 1012.94 1012.52 1012.31 1012.41 1012.26 1012.24 1012.11 1012.03 1012.09 1012.31 1012.38 1012.44 1012.65
1016.54 1017.15 1017.70 1018.25 1018.66 1019.20 1019.73 1020.23 1020.82 1020.89 1020.29 1020.66 1020.29 1020.39 1019.92 1019.15 1018.73 1018.08 1017.11 1016.59 1016.04 1014.82 1014.76 1014.36 1013.99 1014.11 1013.77 1014.10 1013.84 1013.60 1013.06 1012.56 1011.88 1012.28 1012.15 1011.52 1012.74 1013.60 1013.68 1013.90 1013.95 1013.75 1013.49 1013.37 1013.33 1013.28 1013.17 1013.11 1013.07 1012.91 1012.81 1012.83 1012.95 1013.07
1016.61 1017.09 1017.72 1018.33 1018.79 1019.35 1019.87 1020.39 1020.75 1020.80 1020.77 1020.41 1020.24 1019.40 1018.68 1018.64 1017.93 1016.60 1015.51 1014.95 1014.59 1014.61 1014.53 1014.29 1014.04 1013.82 1014.25 1014.37 1013.88 1013.59 1012.87 1012.23 1012.38 1012.37 1011.73 1012.45 1013.72 1014.13 1014.39 1014.35 1014.44 1014.39 1014.23 1014.11 1013.99 1013.92 1013.77 1013.68 1013.57 1013.55 1013.49 1013.47 1013.50 1013.47
1016.50 1017.15 1017.77 1018.32 1018.91 1019.50 1020.01 1020.51 1020.81 1020.87 1020.43 1019.41 1018.92 1018.79 1017.84 1016.94 1015.98 1015.07 1014.56 1014.28 1014.73 1014.76 1014.49 1014.53 1013.91 1013.97 1013.91 1014.00 1013.56 1013.12 1012.60 1012.57 1012.15 1011.82 1012.08 1013.04 1014.03 1014.54 1014.97 1015.07 1014.83 1014.86 1014.80 1014.65 1014.53 1014.41 1014.25 1014.13 1014.05 1014.06 1013.90 1013.83 1013.85 1013.81
1016.47 1017.20 1017.81 1018.49 1019.07 1019.65 1020.17 1020.58 1020.80 1020.36 1019.70 1018.73 1018.24 1017.28 1016.55 1015.73 1015.45 1015.13 1015.05 1015.03 1014.92 1014.97 1014.67 1014.54 1014.42 1014.17 1013.76 1013.69 1013.54 1013.06 1012.73 1012.16 1011.79 1012.13 1012.96 1013.90 1014.82 1015.39 1015.77 1015.81 1015.53 1015.30 1015.26 1015.15 1015.00 1014.77 1014.59 1014.51 1014.44 1014.27 1014.15 1014.14 1014.13 1014.07
1016.51 1017.29 1017.86 1018.45 1019.16 1019.86 1020.35 1020.69 1020.49 1019.91 1019.15 1018.36 1017.65 1016.53 1015.94 1015.45 1014.84 1014.67 1014.61 1014.51 1014.76 1014.67 1014.78 1014.51 1013.79 1013.54 1013.30 1013.31 1013.11 1012.66 1012.51 1012.32 1012.60 1013.13 1013.94 1015.02 1015.54 1015.69 1015.75 1015.62 1015.68 1015.83 1015.79 1015.61 1015.35 1015.12 1014.96 1014.72 1014.60 1014.48 1014.34 1014.17 1014.28 1014.38
1016.61 1016.67 1017.41 1018.60 1019.43 1020.09 1020.40 1020.04 1019.77 1019.04 1018.08 1017.57 1016.55 1016.23 1015.58 1015.32 1014.85 1014.83 1014.83 1014.64 1015.05 1014.57 1014.18 1013.80 1013.38 1013.22 1013.34 1013.04 1012.80 1013.02 1012.81 1013.10 1013.24 1013.98 1014.55 1015.17 1015.51 1015.84 1016.05 1016.11 1016.10 1016.32 1016.25 1016.19 1016.07 1015.86 1015.52 1015.25 1015.11 1014.84 1014.80 1014.96 1015.14 1015.33
1016.45 1016.97 1017.97 1018.89 1019.55 1020.23 1020.33 1019.95 1019.08 1018.28 1017.45 1016.68 1015.97 1015.53 1015.59 1015.49 1015.16 1015.07 1014.93 1014.96 1014.94 1014.25 1014.15 1013.57 1013.27 1013.22 1013.06 1012.85 1012.82 1013.33 1013.41 1013.59 1013.93 1014.42 1014.89 1015.51 1015.91 1016.19 1016.33 1016.55 1016.67 1016.61 1016.39 1016.38 1016.25 1015.99 1015.81 1015.57 1015.43 1015.45 1015.28 1015.47 1015.43 1015.26
1016.71 1017.69 1018.65 1019.26 1019.15 1019.01 1019.05 1019.26 1018.97 1017.51 1016.62 1016.19 1015.90 1015.64 1015.51 1015.24 1015.28 1015.40 1015.07 1015.02 1015.01 1014.79 1014.25 1013.53 1013.11 1012.66 1012.81 1013.52 1013.51 1013.74 1013.85 1014.13 1014.42 1014.81 1015.23 1015.84 1016.24 1016.48 1016.71 1016.76 1016.97 1016.85 1016.67 1016.59 1016.38 1016.34 1016.34 1016.26 1016.19 1016.09 1015.98 1015.85 1015.61 1015.55
1017.97 1018.82 1019.34 1019.45 1019.27 1018.37 1018.30 1018.42 1018.57 1017.50 1016.18 1015.75 1015.71 1015.33 1015.32 1015.29 1015.23 1014.99 1014.78 1014.69 1014.54 1014.21 1013.74 1013.33 1012.89 1013.43 1013.87 1014.11 1014.29 1014.33 1014.63 1015.09 1015.18 1015.11 1015.09 1015.57 1016.35 1016.60 1016.89 1017.08 1016.87 1016.90 1016.82 1016.78 1016.63 1016.73 1016.36 1016.48 1016.53 1016.39 1016.27 1016.23 1015.99 1015.83
1018.79 1019.43 1019.51 1019.00 1018.61 1018.36 1018.02 1017.53 1017.23 1016.67 1015.97 1015.62 1015.35 1015.31 1015.16 1015.22 1014.88 1014.59 1014.49 1014.81 1014.25 1013.84 1013.57 1013.79 1014.05 1014.51 1015.10 1015.32 1015.45 1015.59 1015.68 1015.93 1015.81 1016.06 1016.18 1016.45 1016.85 1017.23 1017.17 1017.14 1016.91 1016.82 1016.83 1016.80 1016.67 1016.87 1016.86 1016.79 1016.77 1016.47 1016.21 1016.29 1016.19 1016.27
1019.15 1019.45 1018.88 1018.84 1018.39 1018.18 1017.99 1017.35 1016.84 1016.37 1016.07 1015.31 1015.23 1015.06 1015.02 1015.00 1014.69 1014.90 1015.39 1014.65 1014.06 1013.92 1014.43 1014.54 1014.80 1015.10 1015.39 1015.70 1015.83 1016.30 1016.40 1016.59 1016.59 1016.79 1017.05 1017.21 1017.23 1017.01 1016.93 1016.95 1016.90 1016.89 1016.87 1016.77 1016.69 1016.78 1016.95 1017.06 1016.92 1016.60 1016.67 1016.37 1015.74 1015.66
1019.29 1019.16 1019.05 1018.66 1018.19 1017.91 1017.28 1016.88 1016.35 1015.85 1015.42 1015.13 1014.97 1014.99 1014.97 1015.03 1015.43 1015.73 1015.02 1014.81 1014.66 1015.26 1015.39 1015.48 1015.87 1016.17 1016.23 1016.37 1016.52 1016.65 1016.64 1016.61 1016.62 1016.81 1016.99 1016.96 1016.85 1016.91 1016.86 1016.95 1017.02 1016.84 1016.60 1016.58 1016.14 1016.17 1016.55 1017.03 1016.98 1016.60 1016.46 1015.91 1014.94 1014.82
1019.79 1019.21 1018.66 1018.25 1017.98 1017.12 1016.59 1016.22 1016.04 1015.67 1015.41 1015.09 1015.00 1015.14 1015.45 1015.71 1015.98 1015.50 1015.14 1014.81 1015.01 1015.59 1015.72 1016.10 1016.19 1016.25 1016.54 1016.68 1016.63 1016.49 1016.51 1016.65 1016.67 1016.66 1016.68 1016.64 1016.81 1016.98 1016.88 1016.42 1015.89 1015.53 1015.47 1015.44 1015.64 1015.75 1016.12 1016.44 1016.54 1016.09 1015.39 1015.09 1014.93 1014.83
1019.38 1019.11 1018.54 1017.95 1017.33 1016.80 1016.22 1016.01 1016.00 1015.77 1015.64 1015.71 1015.64 1015.80 1016.08 1016.69 1015.95 1015.75 1015.65 1015.16 1015.28 1015.43 1015.64 1016.08 1016.36 1016.77 1016.87 1016.64 1016.72 1016.67 1016.62 1016.43 1016.18 1016.31 1016.61 1016.55 1016.59 1016.70 1016.41 1015.28 1015.43 1015.45 1015.21 1015.28 1015.35 1015.45 1015.57 1015.50 1015.32 1015.15 1015.05 1015.06 1015.01 1014.93
1018.64 1018.06 1018.00 1016.95 1016.74 1016.41 1016.23 1016.17 1016.19 1016.02 1015.95 1015.91 1015.99 1016.36 1016.70 1016.32 1016.21 1016.14 1015.43 1015.39 1015.69 1015.96 1015.75 1016.02 1016.53 1016.72 1016.57 1016.86 1016.72 1016.54 1016.39 1016.09 1015.95 1015.89 1015.76 1015.27 1014.95 1014.91 1014.87 1014.83 1014.92 1015.31 1015.32 1015.17 1015.25 1015.22 1015.19 1015.05 1015.07 1015.08 1014.67 1014.98 1015.49 1014.96
1018.19 1017.48 1017.22 1017.19 1016.75 1016.61 1016.39 1016.42 1016.33 1016.13 1015.95 1015.90 1016.02 1016.43 1016.72 1016.39 1016.13 1015.71 1015.77 1015.98 1016.00 1016.23 1016.26 1016.35 1016.41 1016.67 1016.75 1016.61 1016.53 1016.12 1015.82 1015.37 1015.03 1015.25 1015.23 1014.72 1014.56 1014.57 1014.47 1014.66 1014.65 1014.86 1015.23 1015.36 1015.31 1015.39 1015.48 1015.31 1015.40 1015.29 1014.91 1014.54 1014.83 1014.92
1018.09 1017.67 1017.15 1017.11 1016.77 1016.69 1016.24 1016.05 1015.99 1015.83 1015.76 1015.99 1016.33 1016.28 1016.29 1016.19 1016.04 1016.06 1016.27 1016.33 1016.63 1016.67 1016.47 1016.69 1016.65 1016.62 1016.52 1016.35 1015.58 1015.46 1015.41 1015.48 1015.57 1015.31 1014.93 1014.83 1014.86 1014.82 1015.05 1014.97 1015.21 1015.79 1015.54 1015.48 1015.39 1015.28 1015.21 1015.20 1015.19 1015.18 1015.03 1014.64 1014.82 1014.89
1018.13 1017.85 1017.43 1017.03 1016.76 1016.43 1016.14 1016.06 1015.73 1016.01 1016.04 1016.09 1016.41 1016.42 1016.45 1016.33 1016.55 1016.48 1016.55 1016.65 1016.59 1016.47 1016.50 1016.54 1016.57 1016.41 1016.07 1015.69 1015.44 1015.23 1014.75 1014.38 1014.39 1014.44 1014.33 1014.02 1013.75 1014.01 1014.59 1014.79 1014.97 1015.06 1015.03 1015.17 1015.71 1015.82 1015.40 1015.18 1015.02 1014.88 1014.87 1014.62 1014.66 1014.75
1018.25 1018.17 1017.45 1017.14 1016.83 1016.15 1015.74 1015.80 1016.35 1016.68 1016.80 1016.91 1016.87 1016.81 1016.72 1016.51 1016.51 1016.54 1016.39 1016.44 1016.46 1016.37 1016.12 1015.75 1015.34 1015.35 1014.61 1014.23 1014.02 1014.03 1014.09 1014.11 1014.07 1013.57 1013.46 1013.47 1013.49 1013.81 1014.36 1014.61 1014.66 1014.67 1014.83 1014.81 1014.70 1015.03 1015.65 1015.56 1015.29 1015.07 1014.84 1014.52 1014.25 1014.31
1018.18 1017.99 1017.73 1017.40 1016.93 1016.35 1016.08 1016.29 1016.41 1016.31 1016.51 1016.45 1016.59 1016.60 1016.35 1016.29 1016.16 1016.20 1016.09 1016.05 1015.86 1015.54 1015.29 1014.83 1014.57 1014.35 1014.09 1013.94 1013.69 1013.31 1013.12 1013.53 1013.82 1014.13 1014.04 1013.71 1013.94 1014.24 1014.35 1014.49 1014.54 1014.60 1014.66 1014.66 1014.58 1014.54 1014.72 1014.63 1014.42 1014.34 1014.20 1014.33 1014.65 1014.82
1017.69 1017.45 1017.17 1016.60 1016.37 1016.38 1016.22 1016.11 1016.03 1015.97 1016.00 1015.99 1015.99 1016.09 1016.09 1015.72 1015.49 1015.39 1015.37 1015.27 1015.02 1014.64 1014.47 1014.40 1013.91 1013.75 1013.97 1013.87 1013.73 1013.81 1014.51 1013.93 1014.11 1014.19 1014.44 1014.48 1014.41 1014.56 1014.61 1014.60 1014.56 1014.57 1014.60 1014.51 1014.39 1014.26 1014.28 1014.46 1014.35 1014.31 1014.43 1014.80 1015.05 1015.13
1016.45 1016.33 1016.13 1015.92 1015.80 1015.87 1015.91 1015.78 1015.86 1015.83 1015.40 1014.97 1014.77 1014.50 1014.27 1014.23 1014.14 1014.12 1014.16 1014.29 1014.17 1013.87 1013.73 1013.73 1013.87 1013.83 1014.05 1014.21 1014.03 1014.11 1014.43 1014.69 1015.13 1015.12 1015.10 1015.22 1015.29 1015.25 1014.95 1014.70 1014.83 1014.75 1014.54 1014.43 1014.29 1014.36 1014.57 1014.76 1014.71 1015.00 1015.04 1015.16 1015.27 1015.39
Wind_Speed
21 20 19 16 14 12 9 8 6 2 4 6 9 11 13 15 16 9 5 5 5 4 5 3 4 6 5 4 5 7 6 2 2 6 6 4 8 4 3 4 1 6 6 6 2 5 6 2 4 5 6 5 4 7
21 20 18 17 14 12 10 9 7 3 2 5 8 10 11 13 15 12 1 2 3 5 6 4 10 12 11 8 7 3 4 5 5 5 1 3 4 4 2 7 2 4 6 4 7 7 4 3 5 4 4 4 3 6
21 20 19 17 15 12 11 10 9 5 3 3 6 8 10 10 11 9 4 4 4 4 5 6 3 2 3 6 6 5 4 4 3 4 5 3 1 4 5 4 3 3 1 1 4 5 5 3 4 3 4 4 2 6
22 21 19 17 15 13 11 10 9 6 4 3 4 6 8 9 9 8 3 3 4 4 6 6 2 2 2 2 4 4 4 2 3 4 4 3 3 4 3 3 6 7 3 2 2 2 1 3 3 3 3 3 6 7
22 22 20 18 15 14 12 11 10 8 6 4 3 5 7 10 10 6 1 2 2 6 6 3 2 3 3 5 3 3 2 2 2 2 3 2 2 4 2 2 4 1 4 5 5 4 3 6 3 1 3 5 8 9
22 22 19 17 15 14 13 11 11 10 7 5 3 4 6 9 11 4 5 4 0 4 6 3 4 3 3 4 3 3 2 1 1 3 3 2 1 5 4 3 5 2 1 4 5 2 3 4 2 3 7 9 10 10
24 23 20 18 16 14 12 11 11 9 7 5 3 5 6 7 7 4 7 5 3 5 5 4 4 5 2 3 3 1 3 1 3 0 3 3 2 4 4 4 8 4 3 3 3 3 4 3 4 7 9 11 10 10
27 24 21 18 15 13 12 11 11 9 7 4 4 6 8 8 8 5 3 6 6 5 4 4 2 5 2 5 4 1 1 2 4 1 3 5 2 3 5 6 4 3 4 1 3 3 5 3 4 7 7 8 8 8
23 21 19 17 15 14 13 13 12 9 6 3 5 8 4 4 4 4 5 8 3 5 4 3 3 3 4 2 0 4 3 4 3 3 2 3 4 6 5 6 6 6 7 6 7 2 3 0 4 4 7 7 8 3
14 14 16 15 15 14 13 14 12 8 4 2 4 4 4 3 3 6 6 5 5 4 4 5 1 3 4 4 5 2 3 2 4 4 2 5 5 6 5 5 6 7 7 6 6 5 2 3 4 4 4 5 5 5
18 17 15 14 13 13 15 13 11 8 4 4 4 1 4 3 5 4 3 4 4 4 5 3 4 4 3 4 3 2 3 1 4 5 4 4 4 6 4 6 6 7 6 4 3 3 3 4 4 4 4 5 6 7
16 16 14 13 13 15 14 13 11 6 1 3 3 0 3 4 3 5 4 3 5 2 4 4 2 5 3 2 3 3 4 1 4 5 4 4 7 6 6 7 7 8 9 9 8 6 6 6 7 6 7 7 7 7
16 14 15 13 15 15 14 13 7 8 5 3 4 4 3 3 3 6 8 4 4 5 3 3 5 3 4 3 4 3 6 4 3 4 3 4 6 6 6 5 6 6 7 7 6 6 7 6 6 7 8 8 9 9
19 17 16 15 15 14 14 13 9 5 3 3 4 2 5 5 5 3 2 3 6 1 2 2 3 4 2 4 3 4 2 2 4 5 3 4 8 7 5 5 5 6 7 7 7 7 8 8 8 8 8 8 9 10
17 18 17 16 16 14 13 11 7 4 3 3 3 4 6 0 2 1 0 2 3 2 2 3 2 2 4 4 3 3 3 5 2 2 3 6 7 5 3 3 6 7 7 8 9 8 8 8 8 8 7 7 9 10
17 14 7 19 17 15 13 9 5 3 2 3 3 4 3 4 4 5 4 3 1 2 1 3 3 4 4 2 3 4 3 2 2 4 6 6 5 3 2 6 7 8 8 9 9 8 8 8 8 9 9 9 10 10
20 2 22 21 18 14 8 3 4 5 3 3 4 3 2 2 2 1 0 0 1 3 4 3 5 2 1 3 3 1 2 3 5 6 6 6 4 4 5 6 6 7 7 7 8 7 8 7 7 7 7 6 6 6
1 17 25 22 15 10 3 2 3 3 4 4 5 5 2 1 2 1 2 2 3 2 2 1 1 3 2 2 1 2 4 5 4 5 4 3 3 4 5 5 6 7 7 6 7 6 5 5 4 3 5 4 4 4
15 17 23 17 5 3 4 3 3 3 4 2 3 3 2 1 1 1 1 1 2 2 4 3 3 3 1 1 1 3 4 3 2 2 2 2 3 4 4 4 4 4 4 3 4 3 2 3 3 3 3 3 4 4
24 20 10 4 5 3 5 3 2 4 4 3 3 3 1 1 3 2 2 1 2 3 4 3 2 5 3 3 3 3 4 3 3 4 3 2 2 4 5 4 4 3 1 1 1 2 2 2 2 3 4 3 3 4
15 7 3 4 2 1 1 2 4 3 1 3 3 4 3 4 4 3 2 2 4 1 3 0 1 5 4 4 2 2 1 2 3 4 5 4 4 5 4 2 4 1 1 2 3 2 3 3 2 2 4 5 4 5
6 3 2 0 1 2 2 3 2 1 3 2 4 3 3 4 3 3 3 4 3 2 1 1 1 0 3 3 2 3 4 5 5 4 4 3 3 2 2 2 1 3 3 2 3 3 3 3 4 5 4 3 3 6
4 3 1 1 1 1 2 2 4 2 3 4 4 4 2 2 3 1 3 1 2 1 1 1 1 2 5 5 5 6 6 6 4 4 2 3 3 2 2 3 2 3 3 2 4 7 6 4 1 2 2 3 3 5
2 2 1 1 2 1 2 2 1 0 1 2 2 3 2 3 3 2 3 1 1 0 2 3 3 2 2 4 3 4 2 1 2 2 1 3 2 2 2 6 7 5 5 5 6 6 7 4 3 3 3 5 5 5
3 0 2 2 2 3 3 3 2 1 2 1 1 2 2 1 2 1 2 2 2 2 2 2 3 1 2 2 2 1 1 1 3 4 1 5 5 4 5 5 6 6 6 6 6 6 4 2 3 4 5 6 6 6
2 2 0 2 3 1 2 3 3 2 2 2 2 3 2 2 1 4 2 1 1 2 2 2 3 3 2 1 1 0 1 4 5 6 7 8 6 6 6 7 6 6 1 1 2 2 0 3 5 5 4 7 5 5
1 3 2 1 1 2 2 1 1 1 3 3 2 3 2 3 4 2 1 1 1 2 2 1 1 1 1 1 2 4 5 4 5 6 6 3 3 3 3 3 3 5 3 2 2 2 3 3 4 4 6 4 4 3
3 2 1 3 2 0 1 2 3 4 3 2 2 4 2 2 1 3 1 1 1 1 1 2 0 1 1 3 2 4 4 4 5 4 4 4 3 2 1 1 3 4 3 2 4 5 5 4 3 1 4 4 3 3
2 1 2 3 3 3 3 3 2 1 1 3 1 2 2 0 1 1 2 1 1 2 2 2 2 4 5 4 3 4 6 7 9 8 10 6 6 7 5 4 5 5 3 5 3 4 5 4 2 4 2 2 1 3
2 3 3 3 3 3 2 2 2 1 1 1 2 1 2 1 1 1 2 3 4 4 6 7 5 6 6 6 6 5 4 4 4 4 3 5 3 4 5 5 4 4 3 2 1 6 3 5 5 6 4 5 4 5
3 2 1 2 2 3 1 2 4 3 2 3 3 2 2 1 1 0 0 3 6 6 6 5 4 4 2 2 3 4 5 4 3 2 2 2 5 5 4 3 3 3 3 4 4 5 6 6 6 6 6 5 5 4
4 5 2 3 1 1 1 1 2 2 2 1 1 1 1 2 6 5 7 6 5 5 4 4 3 1 1 4 3 2 1 3 1 3 5 5 3 1 2 4 4 4 5 6 6 6 5 6 5 5 4 1 3 4
3 3 3 0 1 1 2 2 2 1 1 6 6 6 4 3 4 6 8 9 8 6 5 3 3 3 3 3 2 4 1 6 6 5 10 10 9 5 4 0 1 2 2 4 5 5 2 2 3 3 2 2 2 3
Wind_Direction
190 191 193 193 199 206 206 220 229 256 351 351 10 15 19 19 15 343 65 26 337 309 298 293 314 321 327 353 331 23 244 98 325 251 271 190 269 125 214 44 269 222 230 191 248 217 139 68 184 251 32 93 77 139
188 190 188 191 194 200 201 210 221 224 304 336 1 7 15 18 11 340 20 64 326 262 337 310 291 291 286 301 301 1 16 74 3 279 322 266 194 211 348 170 156 188 355 17 341 47 55 27 33 41 10 24 87 131
185 187 187 188 191 195 196 203 213 214 256 321 351 357 6 13 11 354 339 356 248 264 229 231 150 108 250 252 259 302 83 357 67 326 326 319 286 289 205 95 149 112 24 351 262 92 65 56 71 82 48 34 94 122
185 184 184 184 186 190 192 202 204 204 238 279 334 348 354 354 357 335 332 19 273 292 281 106 142 135 352 220 213 250 332 316 281 281 289 309 318 322 49 34 293 37 210 116 226 147 136 125 82 48 51 91 129 139
186 179 178 180 181 185 189 199 196 201 220 250 301 340 346 338 337 295 243 50 333 310 334 352 139 56 82 153 157 173 257 296 326 299 288 5 317 291 21 286 240 185 62 257 31 43 340 88 95 55 114 103 120 123
181 171 171 173 178 181 188 195 193 200 210 232 286 326 334 332 324 247 200 150 2 335 275 253 86 158 131 156 143 104 111 171 282 311 348 279 356 278 241 258 60 99 76 346 20 82 80 113 128 154 112 98 101 106
175 163 165 172 175 180 183 188 186 190 206 223 279 307 314 320 305 298 3 35 359 300 268 259 178 131 211 207 165 199 169 126 289 262 264 298 213 280 278 269 137 103 39 65 91 148 140 168 155 149 113 106 101 102
159 156 164 167 172 176 179 178 173 181 204 225 283 299 302 305 267 240 120 221 246 276 259 276 154 194 201 206 191 184 229 205 167 327 206 240 184 248 258 81 21 343 328 191 147 30 6 65 99 101 102 104 93 83
145 154 159 163 171 173 172 167 171 178 203 240 292 304 245 220 224 76 100 140 224 299 300 259 267 123 181 211 32 178 258 226 98 245 208 248 188 226 43 344 326 345 331 339 314 294 332 262 92 117 139 154 111 128
138 162 168 165 166 166 164 163 168 167 185 280 254 218 180 96 11 166 184 204 195 184 225 265 14 210 256 171 188 255 196 250 224 126 133 235 227 70 27 356 336 321 301 286 299 236 228 126 94 82 78 65 48 53
165 157 160 163 164 164 157 158 153 153 198 212 200 159 57 118 221 222 211 222 158 223 195 245 283 277 143 233 210 297 283 219 248 132 243 189 209 110 81 62 38 36 44 77 72 60 55 40 55 53 43 35 34 34
161 165 165 165 163 156 154 152 153 199 196 34 13 204 214 213 210 231 203 160 225 224 160 239 158 233 122 255 222 190 254 215 255 134 230 232 94 116 110 83 67 51 54 61 54 53 43 41 24 8 352 356 354 348
167 160 156 161 157 154 154 154 163 97 166 172 214 186 204 156 205 219 178 176 199 172 165 200 190 224 169 235 242 221 232 228 110 209 231 54 136 141 114 86 67 43 33 31 25 15 3 354 349 341 327 318 316 311
165 165 162 159 154 155 155 156 154 158 248 219 176 182 224 182 229 184 186 82 71 270 266 287 215 205 165 208 217 246 196 258 232 221 155 110 151 120 76 27 17 10 2 353 348 343 335 335 329 319 309 315 312 309
163 162 162 161 156 154 153 154 170 207 255 216 208 222 198 247 189 158 116 231 171 289 249 180 216 245 186 244 226 282 227 232 272 48 90 105 119 97 60 356 333 342 338 329 328 321 321 321 314 309 306 309 307 305
179 152 160 151 150 146 141 153 189 238 221 235 237 219 158 211 158 181 176 215 142 217 196 242 198 197 199 234 231 225 263 334 81 96 108 124 130 133 337 332 335 326 320 316 315 317 316 310 321 321 311 316 329 325
156 198 146 143 138 141 159 199 198 217 252 219 205 217 298 341 37 79 198 89 124 248 205 214 192 170 49 228 221 283 8 88 115 110 120 76 45 1 333 316 330 321 321 310 304 297 296 309 291 306 314 330 343 346
164 133 134 134 143 144 184 237 247 230 220 217 222 142 152 304 302 225 167 196 245 234 231 297 139 197 243 261 140 114 137 119 102 79 62 48 347 325 315 327 319 306 306 305 292 288 281 302 314 355 349 3 310 290
125 125 133 153 175 160 164 182 254 241 224 177 220 194 220 233 124 212 250 197 240 294 271 226 250 245 109 42 56 147 140 135 111 72 24 3 325 323 306 313 324 329 320 329 360 39 50 26 6 353 347 328 339 3
116 124 117 136 245 182 160 152 229 253 219 135 219 188 194 152 154 158 97 112 233 229 211 232 306 37 69 59 28 65 62 52 359 310 317 69 329 318 345 312 304 350 323 16 110 344 54 55 33 32 26 27 27 28
131 117 133 261 147 273 285 174 201 252 233 214 176 184 150 171 178 154 116 5 237 259 233 32 43 84 51 52 33 6 87 324 320 322 329 320 338 333 292 286 294 34 59 16 77 73 42 41 29 24 40 30 31 32
107 241 191 332 276 153 261 221 287 43 234 164 155 173 150 174 142 85 345 248 254 55 350 315 23 166 194 227 293 288 321 280 274 299 272 276 263 262 204 237 134 104 92 101 94 90 60 26 358 38 56 45 111 79
165 29 342 259 266 192 163 195 212 172 183 149 166 156 126 124 60 278 243 262 3 47 351 339 21 332 314 312 296 288 268 259 260 251 266 250 218 201 91 89 96 117 107 135 148 99 91 63 97 124 138 298 62 77
171 264 266 182 222 79 174 158 123 89 135 162 157 120 88 39 340 235 263 255 90 174 210 208 243 278 231 238 264 273 326 270 263 255 219 140 130 100 156 163 173 140 112 122 115 121 131 148 197 158 144 85 62 54
284 101 207 264 222 206 143 116 90 95 132 119 146 141 113 308 259 356 238 261 196 209 192 207 237 218 262 293 296 302 320 199 185 108 143 122 118 139 191 145 113 119 139 137 133 125 115 116 66 43 40 44 28 51
287 147 227 110 128 174 136 145 164 158 153 165 128 93 185 259 265 252 256 30 31 285 267 237 177 229 217 180 280 215 178 213 146 143 156 163 174 136 137 144 146 143 191 48 139 178 218 36 30 347 354 137 166 305
278 126 134 35 348 150 161 109 122 208 185 190 162 163 204 229 232 226 58 281 232 248 306 302 121 117 228 179 230 204 156 170 140 142 168 169 80 47 49 63 75 85 146 210 215 235 301 319 354 346 324 40 75 64
265 323 142 145 194 198 283 208 191 197 190 152 189 209 229 233 281 70 223 145 301 254 257 75 129 239 212 248 143 142 147 151 156 207 175 183 197 214 213 247 56 68 292 310 279 259 237 238 261 239 302 32 115 73
227 195 253 215 233 213 231 229 236 50 297 214 232 226 242 274 315 320 2 335 178 141 137 154 193 215 222 220 225 220 217 202 196 200 223 232 192 174 167 181 160 185 176 137 153 326 339 320 296 358 293 321 339 323
216 217 239 198 218 227 213 205 119 173 341 168 217 290 268 266 295 258 207 172 171 179 194 204 174 202 186 192 169 176 191 217 248 281 206 221 179 125 159 183 191 190 186 230 261 136 150 241 195 226 251 285 277 331
144 205 293 254 267 281 283 239 261 244 205 204 180 228 276 307 290 166 60 181 173 185 196 195 199 211 234 224 259 241 175 142 156 191 302 112 131 146 169 173 200 209 233 267 294 305 324 292 286 282 294 350 23 322
179 200 230 224 184 14 10 3 35 37 29 81 119 146 202 157 113 171 184 195 214 224 219 259 278 310 308 291 278 279 352 355 288 229 210 218 225 162 225 255 266 285 283 275 270 276 309 304 300 347 9 20 357 1
193 190 232 321 77 86 229 174 129 39 281 139 139 137 129 103 130 175 188 215 236 244 241 262 302 316 341 310 311 106 62 72 64 74 86 65 46 9 299 293 88 294 285 314 332 334 326 336 337 348 322 340 355 5